Location: Newark
(54.0500°N, 12.8333°E)
Time: 09:51:42
(UTC+00:00)

S-56A Canister/Altair - All Passes

Search period start: 20 January 2020 00:00
Search period end: 30 January 2020 00:00
Orbit: 634 x 2498 km, 38.9° (Epoch: 19 January)

Date Brightness Start Highest point End Pass type
(mag) Time Alt. Az. Time Alt. Az. Time Alt. Az.
20 Jan - 00:03:04 10° SSW 00:04:55 12° S 00:06:50 10° SSE night (unlit)
20 Jan - 23:30:39 10° SSW 23:32:27 12° S 23:34:16 10° SSE night (unlit)
21 Jan - 22:58:10 10° SSW 22:59:59 12° S 23:01:48 10° SSE night (unlit)
22 Jan - 22:25:36 10° SSW 22:27:31 12° S 22:29:24 10° SSE night (unlit)
23 Jan - 21:52:57 10° SSW 21:55:03 13° S 21:57:04 10° SSE night (unlit)
24 Jan - 21:20:13 10° SSW 21:22:34 13° S 21:24:47 10° SSE night (unlit)
25 Jan - 20:47:26 10° SSW 20:50:05 14° S 20:52:32 10° SSE visible
25 Jan - 22:52:02 10° SSW 22:52:28 10° SSW 22:52:54 10° S night (unlit)
26 Jan - 20:14:34 10° SSW 20:17:36 15° S 20:20:17 10° SE visible
26 Jan - 22:18:31 10° SW 22:20:01 11° SSW 22:21:28 10° S night (unlit)
27 Jan - 19:41:39 10° SSW 19:45:05 15° S 19:48:04 10° SE visible
27 Jan - 21:45:21 10° SW 21:47:33 13° SSW 21:49:36 10° SSE night (unlit)
28 Jan - 19:08:41 10° SSW 19:12:33 16° S 19:15:50 10° SE visible
28 Jan - 21:12:16 10° SW 21:15:05 14° SSW 21:17:38 10° SSE visible
29 Jan - 18:35:40 10° SSW 18:40:00 17° S 18:43:35 10° SE visible
29 Jan - 20:39:10 10° SW 20:42:37 16° SSW 20:45:36 10° SSE visible
